WX6HNX-14 Weather Reports


time (UTC)temp
C
wind
direction
speed
KPH
gust
KPH
rain 1hr
cm
rain 24hr
cm
rain mn
cm
humidity
%
barometer
mb
20260507004525 25 15 1.6 12.9 0.00 0.00 0.00 43 1016.5
20260507004025 25 21 3.2 14.5 0.00 0.00 0.00 43 1016.5
20260507003525 25 11 9.7 14.5 0.00 0.00 0.00 42 1016.5
20260507002613 25 315 6.4 12.9 0.00 0.00 0.00 43 1016.5
20260507002114 25 328 6.4 12.9 0.00 0.00 0.00 43 1016.5
20260507001613 25 0 0.0 14.5 0.00 0.00 0.00 43 1016.5
20260507001113 25 335 4.8 16.1 0.00 0.00 0.00 43 1016.5
20260507000613 25 2 6.4 16.1 0.00 0.00 0.00 43 1016.5
20260507000114 25 12 8.0 16.1 0.00 0.00 0.00 43 1016.4
20260506235614 25 356 3.2 19.3 0.00 0.00 0.00 43 1016.5
20260506235113 25 27 4.8 19.3 0.00 0.00 0.00 43 1016.5
20260506234613 25 343 11.3 25.7 0.00 0.00 0.00 44 1016.5
20260506234113 25 335 11.3 25.7 0.00 0.00 0.00 43 1016.5
20260506233613 25 2 8.0 16.1 0.00 0.00 0.00 43 1016.4
20260506233114 25 24 4.8 20.9 0.00 0.00 0.00 44 1016.5
20260506232613 25 27 4.8 24.1 0.00 0.00 0.00 44 1016.5
20260506232113 25 327 11.3 24.1 0.00 0.00 0.00 43 1016.6
20260506231613 25 337 8.0 20.9 0.00 0.00 0.00 43 1016.7
20260506231113 25 313 12.9 20.9 0.00 0.00 0.00 43 1016.7
20260506230613 25 328 4.8 12.9 0.00 0.00 0.00 42 1016.8
20260506230113 25 0 0.0 14.5 0.00 0.00 0.00 42 1016.8
20260506225613 25 344 6.4 14.5 0.00 0.00 0.00 42 1016.9
20260506224855 25 289 8.0 14.5 0.00 0.00 0.00 42 1016.9
20260506224355 25 1 8.0 14.5 0.00 0.00 0.00 43 1017.0
20260506223855 25 353 1.6 16.1 0.00 0.00 0.00 43 1017.0
20260506223355 25 59 8.0 16.1 0.00 0.00 0.00 43 1017.0
20260506222438 25 2 8.0 14.5 0.00 0.00 0.00 44 1017.1
20260506221939 25 324 3.2 16.1 0.00 0.00 0.00 44 1017.2
20260506221438 25 331 8.0 16.1 0.00 0.00 0.00 44 1017.3
20260506220938 24 321 3.2 19.3 0.00 0.00 0.00 44 1017.3
20260506220438 24 336 8.0 19.3 0.00 0.00 0.00 44 1017.5
20260506215938 24 332 14.5 19.3 0.00 0.00 0.00 44 1017.5
20260506215438 24 327 11.3 19.3 0.00 0.00 0.00 44 1017.5
20260506214938 24 353 1.6 20.9 0.00 0.00 0.00 45 1017.6
20260506214438 24 349 9.7 20.9 0.00 0.00 0.00 46 1017.7
20260506213938 23 341 4.8 17.7 0.00 0.00 0.00 45 1017.7
20260506213438 24 43 9.7 22.5 0.00 0.00 0.00 45 1017.8
20260506212939 23 54 8.0 22.5 0.00 0.00 0.00 45 1017.8
20260506212438 24 319 8.0 14.5 0.00 0.00 0.00 46 1017.8
20260506211938 24 251 4.8 12.9 0.00 0.00 0.00 46 1017.8
20260506211438 23 241 3.2 12.9 0.00 0.00 0.00 46 1017.9
20260506210939 23 342 4.8 12.9 0.00 0.00 0.00 46 1017.9
20260506210438 23 315 4.8 12.9 0.00 0.00 0.00 47 1018.0
20260506205938 23 325 4.8 12.9 0.00 0.00 0.00 47 1018.0
20260506205438 23 320 6.4 12.9 0.00 0.00 0.00 47 1018.0
20260506204938 23 271 6.4 12.9 0.00 0.00 0.00 48 1018.0
20260506204438 23 314 6.4 12.9 0.00 0.00 0.00 48 1018.0
20260506203938 23 269 8.0 12.9 0.00 0.00 0.00 49 1018.0
20260506203438 23 38 4.8 12.9 0.00 0.00 0.00 48 1018.1
20260506202520 22 333 8.0 20.9 0.00 0.00 0.00 51 1018.2
20260506202020 22 23 11.3 20.9 0.00 0.00 0.00 49 1018.3
20260506201520 22 246 1.6 12.9 0.00 0.00 0.00 50 1018.4
20260506201021 22 168 4.8 16.1 0.00 0.00 0.00 50 1018.4
20260506200520 22 103 6.4 16.1 0.00 0.00 0.00 51 1018.5
20260506200020 22 47 4.8 9.7 0.00 0.00 0.00 51 1018.6
20260506195059 22 23 8.0 16.1 0.00 0.00 0.00 52 1018.7
20260506194558 22 284 11.3 16.1 0.00 0.00 0.00 50 1018.8
20260506194058 22 290 8.0 16.1 0.00 0.00 0.00 51 1018.8
20260506193558 22 0 0.0 11.3 0.00 0.00 0.00 51 1018.9
20260506193058 22 42 4.8 11.3 0.00 0.00 0.00 51 1019.0
20260506192558 21 327 1.6 11.3 0.00 0.00 0.00 52 1019.1
20260506192058 21 76 6.4 11.3 0.00 0.00 0.00 53 1019.2
20260506191558 21 88 3.2 12.9 0.00 0.00 0.00 54 1019.3
20260506191058 21 322 6.4 12.9 0.00 0.00 0.00 54 1019.4
20260506190558 21 270 6.4 11.3 0.00 0.00 0.00 55 1019.4
20260506190059 21 319 4.8 11.3 0.00 0.00 0.00 55 1019.5
20260506185558 21 344 3.2 11.3 0.00 0.00 0.00 57 1019.6
20260506185058 21 20 4.8 11.3 0.00 0.00 0.00 57 1019.6
20260506184559 20 247 3.2 11.3 0.00 0.00 0.00 55 1019.7
20260506184059 20 288 6.4 12.9 0.00 0.00 0.00 57 1019.8
20260506183558 20 300 3.2 20.9 0.00 0.00 0.00 57 1019.8
20260506183100 20 294 12.9 20.9 0.00 0.00 0.00 58 1019.8
20260506182558 20 244 1.6 11.3 0.00 0.00 0.00 59 1019.9
20260506182058 20 277 1.6 11.3 0.00 0.00 0.00 59 1020.1
20260506181558 20 309 1.6 8.0 0.00 0.00 0.00 60 1020.1
20260506181058 20 32 3.2 17.7 0.00 0.00 0.00 60 1020.2
20260506180558 20 321 8.0 17.7 0.00 0.00 0.00 61 1020.3
20260506180059 19 269 1.6 14.5 0.00 0.00 0.00 62 1020.3
20260506175558 19 328 8.0 14.5 0.00 0.00 0.00 61 1020.4
20260506175058 19 253 6.4 14.5 0.00 0.00 0.00 62 1020.4
20260506174559 18 14 1.6 12.9 0.00 0.00 0.00 62 1020.5
20260506174058 18 260 4.8 14.5 0.00 0.00 0.00 63 1020.5
20260506173558 18 277 4.8 14.5 0.00 0.00 0.00 64 1020.6
20260506173058 18 310 8.0 14.5 0.00 0.00 0.00 65 1020.6
20260506172559 18 169 1.6 12.9 0.00 0.00 0.00 65 1020.7
20260506172058 18 317 3.2 17.7 0.00 0.00 0.00 65 1020.8
20260506171058 18 316 4.8 11.3 0.00 0.00 0.00 66 1020.7
20260506170558 18 0 0.0 14.5 0.00 0.00 0.00 66 1020.7
20260506170059 18 308 6.4 14.5 0.00 0.00 0.00 67 1020.8
20260506165558 17 265 3.2 12.9 0.00 0.00 0.00 67 1020.8
20260506165058 17 277 1.6 12.9 0.00 0.00 0.00 68 1020.8
20260506164507 17 295 4.8 14.5 0.00 0.00 0.00 68 1020.8
20260506164006 17 292 6.4 12.9 0.00 0.00 0.00 69 1020.8
20260506163506 17 42 3.2 12.9 0.00 0.00 0.00 69 1020.9
20260506163006 17 18 6.4 11.3 0.00 0.00 0.00 70 1020.9
20260506162506 17 21 3.2 9.7 0.00 0.00 0.00 71 1021.1
20260506162007 17 232 3.2 9.7 0.00 0.00 0.00 70 1021.1
20260506161506 17 344 1.6 8.0 0.00 0.00 0.00 70 1021.1
20260506160938 17 349 3.2 8.0 0.00 0.00 0.00 71 1021.1
20260506160438 16 356 1.6 8.0 0.00 0.00 0.00 72 1021.2
20260506155938 16 316 1.6 8.0 0.00 0.00 0.00 72 1021.2
20260506155438 16 0 0.0 9.7 0.00 0.00 0.00 73 1021.2
20260506154938 16 267 4.8 11.3 0.00 0.00 0.00 73 1021.2
20260506154438 16 304 3.2 11.3 0.00 0.00 0.00 74 1021.2
20260506153938 16 329 4.8 11.3 0.00 0.00 0.00 74 1021.2
20260506153438 15 291 4.8 11.3 0.00 0.00 0.00 74 1021.2
20260506152939 15 293 4.8 11.3 0.00 0.00 0.00 75 1021.2
20260506151938 15 304 6.4 11.3 0.00 0.00 0.00 75 1021.3
20260506151404 15 297 6.4 12.9 0.00 0.00 0.00 75 1021.3
20260506150404 15 268 9.7 12.9 0.00 0.00 0.00 75 1021.4
20260506145904 15 308 4.8 12.9 0.00 0.00 0.00 76 1021.3
20260506145405 15 310 4.8 9.7 0.00 0.00 0.00 77 1021.4
20260506144904 15 310 1.6 9.7 0.00 0.00 0.00 78 1021.2
20260506144404 14 0 0.0 0.0 0.00 0.00 0.00 79 1021.2
20260506143404 13 0 0.0 0.0 0.00 0.00 0.00 80 1021.3
20260506142905 13 0 0.0 0.0 0.00 0.00 0.00 80 1021.3
20260506142404 13 0 0.0 0.0 0.00 0.00 0.00 81 1021.2
20260506141904 13 0 0.0 0.0 0.00 0.00 0.00 80 1021.1
20260506141405 13 0 0.0 0.0 0.00 0.00 0.00 81 1021.1
20260506140404 13 0 0.0 0.0 0.00 0.00 0.00 83 1020.9
20260506135904 12 0 0.0 0.0 0.00 0.00 0.00 84 1020.8
20260506135404 12 0 0.0 0.0 0.00 0.00 0.00 84 1020.7
20260506134904 12 0 0.0 0.0 0.00 0.00 0.00 85 1020.6
20260506134404 12 0 0.0 0.0 0.00 0.00 0.00 84 1020.5
20260506133405 11 0 0.0 1.6 0.00 0.00 0.00 84 1020.5
20260506132904 11 0 0.0 8.0 0.00 0.00 0.00 84 1020.4
20260506132405 11 100 3.2 8.0 0.00 0.00 0.00 83 1020.3
20260506131904 11 120 1.6 4.8 0.00 0.00 0.00 84 1020.3
20260506131404 11 118 1.6 4.8 0.00 0.00 0.00 83 1020.2
20260506130404 12 0 0.0 6.4 0.00 0.00 0.00 83 1020.2
20260506125905 12 0 0.0 6.4 0.00 0.00 0.00 83 1020.3
20260506125404 12 196 1.6 8.0 0.00 0.00 0.00 84 1020.2
20260506124904 12 218 3.2 9.7 0.00 0.00 0.00 84 1020.0
20260506124404 12 225 6.4 9.7 0.00 0.00 0.00 84 1020.0
20260506123645 11 237 6.4 9.7 0.00 0.00 0.00 84 1019.9
20260506123145 11 250 4.8 9.7 0.00 0.00 0.00 83 1019.9
20260506122644 11 242 6.4 9.7 0.00 0.00 0.00 83 1019.9
20260506122145 12 249 4.8 6.4 0.00 0.00 0.00 82 1019.8
20260506121644 12 248 4.8 6.4 0.00 0.00 0.00 81 1019.8
20260506121144 12 248 3.2 6.4 0.00 0.00 0.00 80 1019.8
20260506120012 12 265 4.8 12.9 0.00 0.00 0.00 80 1019.8
20260506115512 12 275 9.7 12.9 0.00 0.00 0.00 80 1019.8
20260506115014 12 268 9.7 14.5 0.00 0.00 0.00 79 1019.8
20260506114012 12 248 12.9 14.5 0.00 0.00 0.00 80 1019.8
20260506113512 12 250 9.7 12.9 0.00 0.00 0.00 80 1019.9
20260506113013 12 247 9.7 14.5 0.00 0.00 0.00 79 1019.8
20260506112512 12 239 8.0 16.1 0.00 0.00 0.00 79 1019.8
20260506112012 12 268 12.9 16.1 0.00 0.00 0.00 79 1019.7
20260506111514 12 256 11.3 12.9 0.00 0.00 0.00 79 1019.6
20260506111012 12 254 8.0 11.3 0.00 0.00 0.00 79 1019.7
20260506110512 12 266 9.7 11.3 0.00 0.00 0.00 79 1019.7
20260506105933 12 255 9.7 12.9 0.00 0.00 0.00 79 1019.7
20260506105432 12 241 8.0 12.9 0.00 0.00 0.00 79 1019.7
20260506104822 12 239 8.0 11.3 0.00 0.00 0.00 79 1019.5
20260506104322 12 245 4.8 11.3 0.00 0.00 0.00 79 1019.6
20260506103822 12 256 4.8 14.5 0.00 0.00 0.00 79 1019.5
20260506103321 12 248 9.7 14.5 0.00 0.00 0.00 79 1019.3
20260506102821 12 241 9.7 14.5 0.00 0.00 0.00 80 1019.3
20260506102322 11 243 11.3 14.5 0.00 0.00 0.00 81 1019.4
20260506101821 11 243 8.0 12.9 0.00 0.00 0.00 82 1019.3
20260506101321 11 239 6.4 11.3 0.00 0.00 0.00 81 1019.3
20260506100822 11 245 3.2 8.0 0.00 0.00 0.00 80 1019.2
20260506100322 11 254 3.2 11.3 0.00 0.00 0.00 80 1019.2
20260506095821 11 223 8.0 11.3 0.00 0.00 0.00 81 1019.1
20260506095055 11 259 4.8 11.3 0.00 0.00 0.00 81 1019.2
20260506094554 10 249 8.0 16.1 0.00 0.00 0.00 82 1019.0
20260506094054 10 312 9.7 16.1 0.00 0.00 0.00 80 1019.1
20260506093554 11 229 1.6 4.8 0.00 0.00 0.00 79 1019.0
20260506093058 11 229 1.6 6.4 0.00 0.00 0.00 79 1019.0
20260506092554 11 229 4.8 6.4 0.00 0.00 0.00 79 1018.9
20260506092054 11 231 3.2 6.4 0.00 0.00 0.00 80 1018.9
20260506091554 11 286 3.2 4.8 0.00 0.00 0.00 81 1018.9
20260506091054 11 327 3.2 4.8 0.00 0.00 0.00 82 1018.9
20260506090554 11 0 0.0 0.0 0.00 0.00 0.00 82 1018.9
20260506090054 11 0 0.0 0.0 0.00 0.00 0.00 81 1018.9
20260506085554 11 0 0.0 0.0 0.00 0.00 0.00 82 1018.9
20260506085054 10 0 0.0 0.0 0.00 0.00 0.00 81 1018.9
20260506084554 11 0 0.0 0.0 0.00 0.00 0.00 80 1018.9
20260506083624 11 0 0.0 0.0 0.00 0.00 0.00 80 1018.8
20260506083124 11 0 0.0 0.0 0.00 0.00 0.00 80 1018.7
20260506082624 11 0 0.0 0.0 0.00 0.00 0.00 81 1018.7
20260506082124 11 0 0.0 3.2 0.00 0.00 0.00 80 1018.8
20260506081625 11 0 0.0 3.2 0.00 0.00 0.00 80 1018.7
20260506081124 11 187 1.6 3.2 0.00 0.00 0.00 80 1018.7
20260506080628 11 187 1.6 3.2 0.00 0.00 0.00 81 1018.7
20260506080124 11 0 0.0 0.0 0.00 0.00 0.00 81 1018.7
20260506073124 11 0 0.0 3.2 0.00 0.00 0.00 80 1018.6
20260506072624 11 187 1.6 3.2 0.00 0.00 0.00 79 1018.6
20260506072124 12 0 0.0 4.8 0.00 0.00 0.00 78 1018.6
20260506071625 12 186 1.6 4.8 0.00 0.00 0.00 78 1018.5
20260506071124 12 186 3.2 8.0 0.00 0.00 0.00 78 1018.4
20260506070625 12 187 3.2 8.0 0.00 0.00 0.00 79 1018.3
20260506070124 12 185 3.2 6.4 0.00 0.00 0.00 79 1018.3
20260506062124 12 199 1.6 4.8 0.00 0.00 0.00 79 1017.7
20260506061209 12 0 0.0 3.2 0.00 0.00 0.00 78 1017.6
20260506060709 12 199 1.6 6.4 0.00 0.00 0.00 78 1017.6
20260506051209 15 0 0.0 0.0 0.00 0.00 0.00 73 1017.5
20260506050708 15 0 0.0 0.0 0.00 0.00 0.00 73 1017.5
20260506050208 15 0 0.0 0.0 0.00 0.00 0.00 72 1017.4
20260506044249 16 0 0.0 3.2 0.00 0.00 0.00 70 1017.2
20260506043748 16 0 0.0 3.2 0.00 0.00 0.00 68 1017.2
20260506043210 16 201 1.6 8.0 0.00 0.00 0.00 66 1017.1
20260506042708 16 204 3.2 9.7 0.00 0.00 0.00 66 1017.0
20260506042209 16 212 6.4 9.7 0.00 0.00 0.00 67 1016.9
20260506041708 16 212 4.8 8.0 0.00 0.00 0.00 67 1016.9
20260506041207 16 206 4.8 8.0 0.00 0.00 0.00 68 1016.8
20260506040708 16 214 4.8 8.0 0.00 0.00 0.00 68 1016.8
20260506040208 16 227 3.2 8.0 0.00 0.00 0.00 69 1016.7
20260506035708 16 217 3.2 4.8 0.00 0.00 0.00 71 1016.5
20260506035208 16 0 0.0 1.6 0.00 0.00 0.00 72 1016.5
20260506034708 16 0 0.0 1.6 0.00 0.00 0.00 72 1016.5
20260506034209 16 0 0.0 3.2 0.00 0.00 0.00 72 1016.4
20260506033707 16 0 0.0 4.8 0.00 0.00 0.00 72 1016.4
20260506033208 16 182 1.6 6.4 0.00 0.00 0.00 73 1016.4
20260506032708 16 182 3.2 6.4 0.00 0.00 0.00 73 1016.2
20260506032207 16 177 1.6 6.4 0.00 0.00 0.00 73 1016.1
20260506031707 16 96 1.6 3.2 0.00 0.00 0.00 73 1016.0
20260506031101 16 0 0.0 3.2 0.00 0.00 0.00 72 1016.0
20260506030428 16 0 0.0 4.8 0.00 0.00 0.00 71 1015.9
20260506025929 17 95 1.6 4.8 0.00 0.00 0.00 71 1015.8
20260506024123 17 0 0.0 3.2 0.00 0.00 0.00 68 1015.6
20260506023623 17 0 0.0 3.2 0.00 0.00 0.00 68 1015.6
20260506023123 17 0 0.0 3.2 0.00 0.00 0.00 67 1015.5
20260506022623 17 0 0.0 3.2 0.00 0.00 0.00 68 1015.4
20260506022123 17 0 0.0 1.6 0.00 0.00 0.00 69 1015.4
20260506021623 17 0 0.0 3.2 0.00 0.00 0.00 69 1015.4
20260506021123 17 0 0.0 4.8 0.00 0.00 0.00 69 1015.4
20260506020623 17 0 0.0 4.8 0.00 0.00 0.00 70 1015.3
20260506020123 17 0 0.0 6.4 0.00 0.00 0.00 70 1015.3
20260506015623 17 108 3.2 9.7 0.00 0.00 0.00 70 1015.3
20260506015123 17 98 1.6 9.7 0.00 0.00 0.00 69 1015.3
20260506014623 17 102 4.8 12.9 0.00 0.00 0.00 69 1015.2
20260506014123 17 100 6.4 12.9 0.00 0.00 0.00 68 1015.2
20260506013623 17 103 6.4 14.5 0.00 0.00 0.00 68 1015.2
20260506013123 17 84 3.2 14.5 0.00 0.00 0.00 68 1015.2
20260506012524 17 94 6.4 12.9 0.00 0.00 0.00 67 1015.1
20260506012024 18 86 4.8 11.3 0.00 0.00 0.00 66 1015.1
20260506011017 18 112 3.2 6.4 0.00 0.00 0.00 60 1015.0
20260506010518 18 187 1.6 6.4 0.00 0.00 0.00 57 1015.0
20260506010016 18 240 3.2 6.4 0.00 0.00 0.00 56 1015.0
20260506005517 18 255 3.2 12.9 0.00 0.00 0.00 56 1015.0
20260506005016 18 220 6.4 12.9 0.00 0.00 0.00 55 1015.0